09:32
Airports
History
Links
Donate
Help keep this website running!
PayPal
Bitcoin
This page is community maintained. The information is intended for PC simulator navigation or reference.
Always use approved charts for navigation.
SC80
Anderson
Anderson (SC80)
Pendleton, South Carolina, United States (29670)
4
Lat/Lng:34° 40' 4" N / 82° 42' 36" W
34.667778 / -82.71
Elevation:817'ft / 249mMSL
ID / ICAO:SC80
Runways:1
Longest:08-26
Grass 451m / 1,478ft
Nearby Weather08:56 GMT 2017-10-24
Nearby weather at KAND, Anderson Rgnl located 12.0 nautical miles from SC80
Altimeter: 29.86
Visibility: 10.0 statute miles
Wind: 9 knots (from 270°)
Temp: 13°c / 55°f
Humidity: 76.7%

METAR: KAND 240856Z AUTO 27009KT 10SM CLR 13/09 A2986 RMK AO2 SLP104 T01280094 55008

(Powered by phpweather)
Nearby VORs <50NM
Nearby NDBs
Runway 08 / 26
Dimensions:450.6 x 18.3m 1478' x 60'ft
Surface:Grass
Runway 08 [A]Runway 26 [B]
Heading:076°TH 256°TH
Lat:
Lng:
34° 40' 2.21"N
82° 42' 44.74"W
34° 40' 5.79"N
82° 42' 27.26"W
User Notes and Comments
34° 40' 4" N / 82° 42' 36" W
Distance To
Airport ID:
Nearby Airports
(U) Pickens County 9.8 NM
KLQK N
(U) Oconee County Rgnl 10.0 NM
KCEU W 271°
(R) Eagle Ridge 11.6 NM
SC24 W 271°
(R) Oakview 11.7 NM
SC52 NNW 328°
4 Sky Valley Airpark 11.8 NM
SC32 E 95°
(U) Anderson Rgnl 12.0 NM
KAND ( WX ) S 179°
(R) Tokeena Air Park 14.8 NM
SC96 WSW 239°
VFR Chart
Flight Planning at SkyVector.com